• In Lithuania
  • List of Countries
  • For 7 days
  • Water Temperature
  • Satellite Maps
  • Weather Map
  • Weather Widgets
  • user-avatar
    Login

    Hourly Weather Ellenabad

    Today, 26 September, Wednesday

    Time Temperature Precipitation Wind Pressure Humidity
    00:00 +29°C° 0 mm 2 mps 738 mmHg 55%
    01:00 +29°C° 0 mm 2 mps 738 mmHg 57%
    02:00 +28°C° 0 mm 2 mps 738 mmHg 60%
    03:00 +28°C° 0 mm 2 mps 738 mmHg 61%
    04:00 +28°C° 0 mm 2 mps 738 mmHg 63%
    05:00 +28°C° 0 mm 2 mps 738 mmHg 65%
    06:00 +29°C° 0 mm 2 mps 738 mmHg 61%
    07:00 +30°C° 0 mm 2 mps 738 mmHg 58%
    08:00 +31°C° 0 mm 2 mps 739 mmHg 54%
    09:00 +32°C° 0 mm 2 mps 739 mmHg 48%
    10:00 +35°C° 0 mm 2 mps 739 mmHg 42%
    11:00 +37°C° 0 mm 2 mps 739 mmHg 35%
    12:00 +38°C° 0 mm 2 mps 738 mmHg 32%
    13:00 +38°C° 0 mm 2 mps 738 mmHg 28%
    14:00 +39°C° 0 mm 2 mps 737 mmHg 25%
    15:00 +39°C° 0 mm 1 mps 737 mmHg 25%
    16:00 +39°C° 0 mm 1 mps 737 mmHg 26%
    17:00 +39°C° 0 mm 1 mps 736 mmHg 26%
    18:00 +36°C° 0 mm 1 mps 737 mmHg 28%
    19:00 +36°C° 0 mm 2 mps 737 mmHg 30%
    20:00 +35°C° 0 mm 2 mps 737 mmHg 31%
    21:00 +34°C° 0 mm 2 mps 737 mmHg 34%
    22:00 +34°C° 0 mm 3 mps 737 mmHg 37%
    23:00 +33°C° 0 mm 3 mps 737 mmHg 40%

    Tomorrow, 27 September, Thursday

    Time Temperature Precipitation Wind Pressure Humidity
    00:00 +31°C° 0 mm 3 mps 737 mmHg 43%
    01:00 +31°C° 0 mm 3 mps 737 mmHg 46%
    02:00 +30°C° 0 mm 3 mps 737 mmHg 49%
    03:00 +30°C° 0 mm 3 mps 737 mmHg 48%
    04:00 +30°C° 0 mm 2 mps 737 mmHg 46%
    05:00 +29°C° 0 mm 2 mps 737 mmHg 45%
    06:00 +31°C° 0 mm 3 mps 738 mmHg 40%
    07:00 +33°C° 0 mm 3 mps 738 mmHg 35%
    08:00 +34°C° 0 mm 4 mps 739 mmHg 30%
    09:00 +36°C° 0 mm 4 mps 739 mmHg 26%
    10:00 +38°C° 0 mm 4 mps 739 mmHg 22%
    11:00 +41°C° 0 mm 4 mps 739 mmHg 18%
    12:00 +41°C° 0 mm 4 mps 738 mmHg 17%
    13:00 +42°C° 0 mm 4 mps 738 mmHg 16%
    14:00 +43°C° 0 mm 3 mps 737 mmHg 15%
    15:00 +42°C° 0 mm 3 mps 737 mmHg 15%
    16:00 +41°C° 0 mm 2 mps 737 mmHg 16%
    17:00 +40°C° 0 mm 2 mps 736 mmHg 17%
    18:00 +39°C° 0 mm 2 mps 737 mmHg 19%
    19:00 +37°C° 0 mm 2 mps 737 mmHg 21%
    20:00 +36°C° 0 mm 3 mps 737 mmHg 22%
    21:00 +35°C° 0 mm 3 mps 737 mmHg 27%
    22:00 +34°C° 0 mm 3 mps 737 mmHg 31%
    23:00 +33°C° 0 mm 3 mps 737 mmHg 35%

    Day after tomorrow, 28 September, Friday

    Time Temperature Precipitation Wind Pressure Humidity
    00:00 +32°C° 0 mm 2 mps 737 mmHg 37%
    01:00 +31°C° 0 mm 2 mps 737 mmHg 39%
    02:00 +31°C° 0 mm 2 mps 737 mmHg 41%
    03:00 +30°C° 0 mm 2 mps 737 mmHg 39%
    04:00 +30°C° 0 mm 2 mps 737 mmHg 37%
    05:00 +30°C° 0 mm 2 mps 738 mmHg 35%
    06:00 +31°C° 0 mm 3 mps 738 mmHg 32%
    07:00 +33°C° 0 mm 4 mps 739 mmHg 30%
    08:00 +34°C° 0 mm 4 mps 739 mmHg 27%
    09:00 +36°C° 0 mm 5 mps 740 mmHg 24%
    10:00 +39°C° 0 mm 5 mps 740 mmHg 21%
    11:00 +41°C° 0 mm 6 mps 740 mmHg 18%
    12:00 +42°C° 0 mm 5 mps 739 mmHg 18%
    13:00 +42°C° 0 mm 5 mps 739 mmHg 17%
    14:00 +43°C° 0 mm 4 mps 738 mmHg 16%
    15:00 +42°C° 0 mm 4 mps 738 mmHg 18%
    16:00 +42°C° 0 mm 3 mps 738 mmHg 19%
    17:00 +40°C° 0 mm 3 mps 737 mmHg 21%
    18:00 +38°C° 0 mm 3 mps 738 mmHg 27%
    19:00 +36°C° 0 mm 3 mps 738 mmHg 33%
    20:00 +35°C° 0 mm 3 mps 738 mmHg 38%
    21:00 +34°C° 0 mm 3 mps 738 mmHg 43%
    22:00 +33°C° 0 mm 3 mps 738 mmHg 47%
    23:00 +31°C° 0 mm 2 mps 739 mmHg 51%

    29 September, Saturday

    Time Temperature Precipitation Wind Pressure Humidity
    00:00 +31°C° 0 mm 2 mps 738 mmHg 53%
    01:00 +31°C° 0 mm 2 mps 738 mmHg 55%
    02:00 +30°C° 0 mm 1 mps 738 mmHg 57%
    03:00 +30°C° 0 mm 1 mps 738 mmHg 56%
    04:00 +30°C° 0 mm 1 mps 738 mmHg 56%
    05:00 +29°C° 0 mm 1 mps 738 mmHg 56%
    06:00 +31°C° 0 mm 2 mps 739 mmHg 50%
    07:00 +32°C° 0 mm 2 mps 740 mmHg 45%
    08:00 +34°C° 0 mm 2 mps 740 mmHg 39%
    09:00 +36°C° 0 mm 3 mps 740 mmHg 33%
    10:00 +38°C° 0 mm 4 mps 740 mmHg 26%
    11:00 +41°C° 0 mm 5 mps 740 mmHg 20%
    12:00 +42°C° 0 mm 5 mps 740 mmHg 19%
    13:00 +42°C° 0 mm 5 mps 739 mmHg 18%
    14:00 +43°C° 0 mm 4 mps 738 mmHg 17%
    15:00 +42°C° 0 mm 4 mps 738 mmHg 18%
    16:00 +42°C° 0 mm 3 mps 738 mmHg 20%
    17:00 +40°C° 0 mm 3 mps 738 mmHg 21%
    18:00 +38°C° 0 mm 3 mps 738 mmHg 27%
    19:00 +37°C° 0 mm 3 mps 738 mmHg 32%
    20:00 +35°C° 0 mm 3 mps 738 mmHg 37%
    21:00 +34°C° 0 mm 2 mps 738 mmHg 40%
    22:00 +32°C° 0 mm 2 mps 738 mmHg 42%
    23:00 +32°C° 0 mm 2 mps 738 mmHg 45%

    30 September, Sunday

    Time Temperature Precipitation Wind Pressure Humidity
    00:00 +31°C° 0 mm 2 mps 738 mmHg 46%
    01:00 +31°C° 0 mm 1 mps 738 mmHg 47%
    02:00 +31°C° 0 mm 1 mps 738 mmHg 48%
    03:00 +31°C° 0 mm 1 mps 738 mmHg 47%
    04:00 +30°C° 0 mm 1 mps 738 mmHg 46%
    05:00 +30°C° 0 mm 1 mps 738 mmHg 45%
    06:00 +31°C° 0 mm 2 mps 738 mmHg 39%
    07:00 +33°C° 0 mm 3 mps 739 mmHg 34%
    08:00 +34°C° 0 mm 4 mps 739 mmHg 29%
    09:00 +36°C° 0 mm 4 mps 739 mmHg 25%
    10:00 +39°C° 0 mm 5 mps 739 mmHg 22%
    11:00 +41°C° 0 mm 6 mps 739 mmHg 18%
    12:00 +42°C° 0 mm 5 mps 738 mmHg 17%
    13:00 +43°C° 0 mm 5 mps 737 mmHg 16%
    14:00 +43°C° 0 mm 4 mps 737 mmHg 15%
    15:00 +43°C° 0 mm 4 mps 737 mmHg 16%
    16:00 +42°C° 0 mm 3 mps 736 mmHg 17%
    17:00 +41°C° 0 mm 2 mps 736 mmHg 18%
    18:00 +39°C° 0 mm 2 mps 736 mmHg 20%
    19:00 +38°C° 0 mm 3 mps 737 mmHg 22%
    20:00 +36°C° 0 mm 3 mps 737 mmHg 24%
    21:00 +35°C° 0 mm 3 mps 737 mmHg 26%
    22:00 +35°C° 0 mm 2 mps 737 mmHg 28%
    23:00 +34°C° 0 mm 2 mps 737 mmHg 30%

    1 October, Monday

    Time Temperature Precipitation Wind Pressure Humidity
    00:00 +32°C° 0 mm 2 mps 737 mmHg 31%
    01:00 +32°C° 0 mm 2 mps 737 mmHg 32%
    02:00 +31°C° 0 mm 1 mps 736 mmHg 32%
    03:00 +31°C° 0 mm 1 mps 737 mmHg 32%
    04:00 +31°C° 0 mm 1 mps 737 mmHg 31%
    05:00 +30°C° 0 mm 1 mps 737 mmHg 31%
    06:00 +32°C° 0 mm 2 mps 737 mmHg 29%
    07:00 +34°C° 0 mm 2 mps 738 mmHg 27%
    08:00 +35°C° 0 mm 3 mps 739 mmHg 26%
    09:00 +37°C° 0 mm 4 mps 739 mmHg 23%
    10:00 +40°C° 0 mm 4 mps 739 mmHg 20%
    11:00 +41°C° 0 mm 5 mps 739 mmHg 17%
    12:00 +42°C° 0 mm 5 mps 738 mmHg 16%
    13:00 +43°C° 0 mm 4 mps 738 mmHg 15%
    14:00 +43°C° 0 mm 4 mps 737 mmHg 15%
    15:00 +42°C° 0 mm 3 mps 737 mmHg 16%
    16:00 +42°C° 0 mm 3 mps 737 mmHg 16%
    17:00 +40°C° 0 mm 2 mps 737 mmHg 17%
    18:00 +39°C° 0 mm 2 mps 737 mmHg 19%
    19:00 +38°C° 0 mm 2 mps 738 mmHg 20%
    20:00 +36°C° 0 mm 2 mps 738 mmHg 22%
    21:00 +36°C° 0 mm 2 mps 738 mmHg 23%
    22:00 +35°C° 0 mm 2 mps 738 mmHg 25%
    23:00 +35°C° 0 mm 2 mps 738 mmHg 26%
    Show more